Location: Unspecified
(0.0000°N, 0.0000°E)
Time: 00:54:04
(UTC+00:00)

QIANFAN-31 - Pass Details

Date: 12 March 2026
Orbit: 1037 x 1049 km, 89.0° (Epoch: 14 April)

Event Time Altitude Azimuth Distance (km) Brightness Sun altitude
Rises 03:58:13 0° 42° (NE) 3,781 ? -32.8°
Reaches altitude 10° 04:02:28 10° 68° (ENE) 2,834 ? -31.8°
Maximum altitude 04:05:11 13° 94° (E) 2,627 ? -31.1°
Drops below altitude 10° 04:07:53 10° 119° (ESE) 2,841 ? -30.4°
Sets 04:12:07 0° 145° (SE) 3,799 ? -29.4°
